Regional Weather Roundup
Issued by NWS

Home | Current Version | Previous Version | Text Only | Print | Product List | Glossary Off
Versions: 1 2 3 4 5 6 7 8 9 10 11 12 13 14 15 16 17 18 19 20 21 22 23 24 25 26 27 28 29 30 31 32 33 34 35 36 37 38 39 40 41 42 43 44 45 46 47 48 49 50

000
ASUS43 KDMX 170906
RWRIA

WEATHER ROUNDUP FOR IOWA
NATIONAL WEATHER SERVICE DES MOINES IA
300 AM CST WED JAN 17 2018

NOTE: "FAIR" INDICATES FEW OR NO CLOUDS BELOW 12,000 FEET WITH NO
SIGNIFICANT WEATHER AND/OR OBSTRUCTIONS TO VISIBILITY.

* - THESE STATIONS ARE NOT NWS STATIONS...THUS NOT UNDER NWS
QUALITY CONTROL.  THEY ALSO DO NOT REPORT WEATHER SUCH
AS PRECIPITATION OR FOG.

IAZ001>003-012>014-020>022-031>034-043>046-171000-
   NORTHWEST IOWA

CITY           SKY/WX    TMP DP  RH WIND       PRES   REMARKS
CARROLL *      CLOUDY     1  -2  85 SW7       30.56S WCI -11
CHEROKEE *     CLOUDY    -3  -5  89 S7        30.51F WCI -16
DENISON *      CLOUDY    -6  -8  92 SW3       30.56F
LE MARS *      CLOUDY     1  -2  85 S9        30.50F WCI -14
ORANGE CITY *  CLOUDY     1   0  92 S10       30.45F WCI -14
SHELDON *      CLOUDY     1  -2  85 SW12      30.44F WCI -15
SIOUX CITY     CLEAR     -3  -6  87 SE9       30.54F WCI -19
SPENCER        CLOUDY     2  -4  76 SW10      30.48F WCI -14
STORM LAKE *   CLOUDY     1  -2  85 SW13      30.50F WCI -16
$$

IAZ055>058-069>071-079>083-090>094-171000-
   SOUTHWEST IOWA

CITY           SKY/WX    TMP DP  RH WIND       PRES   REMARKS
ATLANTIC *     CLOUDY    -4  -8  84 SW3       30.60S
AUDUBON *      CLOUDY    -4  -8  84 CALM      30.57R
CLARINDA *     CLOUDY    -8  -9  92 CALM      30.65S
COUNCIL BLFS * CLOUDY     3   3 100 S8        30.58S WCI -10
CRESTON *      CLOUDY    -2  -6  84 SW7       30.59F WCI -16
HARLAN  *      CLOUDY    -4  -8  84 CALM      30.62R
LAMONI         CLOUDY     0  -5  79 SW6       30.60F WCI -12
RED OAK *      CLOUDY    -4  -9  77 CALM      30.63R
SHENANDOAH *   CLOUDY    -4  -8  84 CALM      30.64S
$$

IAZ047>049-059>061-072>074-084-171000-
   CENTRAL IOWA

CITY           SKY/WX    TMP DP  RH WIND       PRES   REMARKS
AMES           CLOUDY    -4  -8  83 CALM      30.59S
ANKENY *       CLOUDY    -4  -8  84 CALM      30.62F
BOONE *        CLOUDY    -2  -6  84 SW10      30.55F WCI -19
CHARITON *     CLOUDY    -2  -6  84 SW3       30.60F
DES MOINES     CLOUDY    -2  -7  79 SW5       30.60F WCI -12
GRINNELL*      CLOUDY    -4  -8  85 W5        30.59F WCI -15
KNOXVILLE *    CLEAR     -2  -8  78 SW7       30.60F WCI -16
MARSHALLTOWN   CLOUDY    -4  -8  83 SW7       30.57F WCI -18
NEWTON *       CLOUDY    -4  -8  84 W3        30.59F
PELLA *        CLOUDY    -1  -5  84 CALM      30.63S
PERRY *          N/A     -6 -10  81 S7        30.58S WCI -20
$$

IAZ004>006-015-016-023>025-035-036-171000-
   NORTH CENTRAL IOWA

CITY           SKY/WX    TMP DP  RH WIND       PRES   REMARKS
ALGONA *       CLOUDY    -2  -2 100 SW8       30.49R WCI -17
CLARION *      CLOUDY    -4  -8  84 S10       30.52F WCI -21
ESTHERVILLE    CLOUDY     2  -3  80 SW12      30.47R WCI -15
FORT DODGE *   CLOUDY    -6  -9  86 S7        30.54F WCI -20
MASON CITY     CLOUDY     0  -4  83 W8        30.51F WCI -14
FOREST CITY *    N/A      0  -6  78 SW5       30.50S WCI -10
WEBSTER CITY * CLOUDY    -6 -13  71 SW7       30.54S WCI -20
IOWA FALLS *     N/A     -2  -6  82 SW8       30.55F WCI -16
$$

IAZ007>011-017>019-026>030-037>042-050>054-066-171000-
   NORTHEAST IOWA

CITY           SKY/WX    TMP DP  RH WIND       PRES   REMARKS
CEDAR RAPIDS     N/A     -3  -8  79 W5        30.58S WCI -13
CHARLES CITY *   N/A     -4  -6  92 SW6       30.52S WCI -16
CLINTON *        N/A     -4  -7  87 W8        30.59F WCI -19
DECORAH *        N/A     -2  -6  84 W5        30.50S WCI -12
DUBUQUE          N/A     -3  -7  82 SW3       30.53S
MONTICELLO *     N/A     -2  -8  78 W5        30.58S WCI -12
OELWEIN *        N/A     -6  -8  92 SW7       30.54F WCI -20
WATERLOO         N/A     -6 -10  83 S3        30.56F
$$

IAZ064-065-067-068-078-171000-
   EAST CENTRAL IOWA

CITY           SKY/WX    TMP DP  RH WIND       PRES   REMARKS
DAVENPORT        N/A      0  -6  76 W8        30.61S WCI -14
IOWA CITY        N/A      0  -7  72 CALM      30.63F
MT. PLEASANT * CLOUDY     0  -6  78 W5        30.63F WCI -10
MUSCATINE *    MOCLDY     1  -4  78 W6        30.65S WCI -10
QUAD CITIES      N/A      1  -3  83 W6        30.61S WCI -10
$$

IAZ062-063-075>077-085>089-095>099-171000-
   SOUTHEAST IOWA

CITY           SKY/WX    TMP DP  RH WIND       PRES   REMARKS
BURLINGTON     CLOUDY    -1  -6  79 W3        30.63S
FAIRFIELD *    CLOUDY    -2  -8  78 SW5       30.62F WCI -12
FORT MADISON * CLEAR      0  -6  78 W5        30.64S WCI -10
KEOKUK *       CLOUDY    -2  -8  78 SW6       30.65S WCI -14
OSKALOOSA *      N/A     -3  -7  86 W8        30.62F WCI -18
OTTUMWA        CLOUDY    -2  -7  79 W5        30.62S WCI -12
WASHINGTON *   CLOUDY    -2  -6  84 W6        30.63F WCI -14
$$

ABBREVIATIONS USED IN REMARKS
   TC - TEMPERATURES IN CELSIUS
  WCI - WIND CHILL INDEX
   HX - HEAT INDEX
  VSB - VISIBILITY
$$




USA.gov is the U.S. government's official web portal to all federal, state and local government web resources and services.